Temp_Advection
nan nan nan nan nan nan nan nan nan nan nan nan nan nan nan nan nan nan nan nan nan nan nan nan nan nan nan nan nan nan nan nan nan nan nan nan nan nan
nan 0 0 0 -0 -0 -0 0 -0 0 0 -0 -1 -1 -0 0 0 -0 -0 0 1 0 -0 -0 1 1 -0 -0 -1 -0 0 0 0 1 0 -0 0 nan
nan 0 0 -0 -0 -0 -1 0 1 0 -0 -0 -1 -1 -1 -0 0 0 0 -0 -0 -0 -0 1 1 1 -0 -1 -1 -1 1 0 0 1 1 1 -0 nan
nan -0 0 0 -0 -0 -0 0 0 -0 0 -1 -1 -0 -0 -0 -0 0 1 0 -0 -0 -0 1 0 -1 0 1 -1 -2 0 1 1 1 1 1 -0 nan
nan -0 0 -0 -0 -0 0 -0 -0 0 0 -0 -1 -0 -0 0 -0 -0 1 1 -0 -0 1 -0 -1 -0 0 -0 -0 0 1 1 -0 -0 2 1 -0 nan
nan -0 -0 0 -0 -0 0 1 1 -0 -0 -0 0 0 -0 -0 -0 -0 -0 -0 -0 0 0 0 0 0 0 -0 -0 -0 -1 1 1 -0 0 1 1 nan
nan 0 0 -0 -0 0 0 0 0 -0 0 -0 -0 -0 0 -0 -1 -1 -0 -0 -0 0 0 -0 -0 0 -0 0 -1 -2 0 1 1 0 -1 0 1 nan
nan -0 0 0 0 0 0 -0 -0 0 -0 0 1 -0 -1 -0 -1 0 1 0 -1 -2 -2 -0 0 -0 0 0 0 0 1 1 2 1 -1 -1 -0 nan
nan -0 0 0 0 -0 0 0 -0 -0 -0 0 0 -0 0 -0 -1 0 0 0 0 0 -1 -2 0 -1 -0 -0 -0 0 1 0 1 1 -1 -1 -1 nan
nan 0 0 0 0 -0 -0 -0 0 1 0 -0 -0 -0 -0 -0 0 0 0 0 -0 0 0 -0 -1 -1 -0 0 0 0 0 -0 -1 0 1 0 -1 nan
nan 0 0 -0 -1 -0 -0 -0 0 0 -0 -0 0 0 0 0 0 1 1 1 0 0 1 1 0 0 -0 -0 -0 0 0 -0 -0 0 -0 -0 0 nan
nan 0 0 0 0 -0 -0 -0 0 1 2 1 0 1 1 1 0 1 1 1 1 0 0 0 0 0 -1 -1 -0 0 -0 0 0 0 0 0 -1 nan
nan 1 1 1 0 0 1 1 1 1 1 1 1 1 0 0 -0 0 0 0 0 0 0 -0 -1 -0 1 0 -1 -1 -0 -1 -1 -0 -0 0 2 nan
nan 1 0 0 1 1 1 1 1 0 0 0 0 -0 -0 -0 -0 0 0 0 -0 -0 0 1 -0 -0 -0 -0 -2 -3 -3 -2 -1 -1 -1 -1 -0 nan
nan 0 0 -0 -0 0 0 0 0 0 0 0 0 0 0 0 -0 -0 -0 -0 -0 0 0 1 1 1 0 -0 -1 -2 -3 -5 -3 -2 -2 -2 -1 nan
nan -0 0 0 0 0 0 0 0 0 0 0 0 -0 -0 -0 -0 -0 -0 -0 -0 -0 -0 -0 1 1 0 -0 -1 -2 -0 -2 -3 -1 -1 -2 -3 nan
nan 0 0 0 0 0 0 0 0 0 0 0 -0 -0 -0 -0 -0 -1 -1 -1 -1 -1 -1 -0 -0 0 0 -0 -0 -1 -1 -0 -1 -1 0 -1 -3 nan
nan 0 0 0 0 -0 -0 0 -0 -0 -0 -0 -0 -0 -0 -1 -1 -1 -1 -1 -1 -1 -1 -1 -0 -0 -0 -0 0 0 -0 -1 -1 0 1 -0 -4 nan
nan 0 0 0 0 -0 -0 -0 -0 -0 -0 -0 -0 -0 -1 -0 -0 -0 -0 -0 -0 -0 -0 -0 -0 -0 -1 -1 -1 -0 -0 -1 -1 -0 1 1 -1 nan
nan 0 0 0 0 -0 -0 -0 -0 -0 -0 -0 -0 -0 -0 -0 0 0 0 0 -1 -1 -1 -0 0 0 0 -0 -1 -1 -0 0 0 -1 -1 -1 -1 nan
nan 0 0 -0 -0 -0 -0 -0 -0 -0 -0 -0 -0 -0 -0 -0 -0 -0 -0 -0 -1 -1 -1 -0 -0 -0 -0 0 -0 -1 -0 0 1 -0 -0 -0 -1 nan
nan 0 0 0 -0 -0 -0 -0 -0 -0 -0 -0 -0 -0 -0 -0 -0 -1 -1 -1 0 -0 -0 0 0 0 -0 -0 -0 -1 -1 -0 -0 0 0 -0 -0 nan
nan nan nan nan nan nan nan nan nan nan nan nan nan nan nan nan nan nan nan nan nan nan nan nan nan nan nan nan nan nan nan nan nan nan nan nan nan nan
Wind_Speed
43 44 41 40 40 43 43 44 42 30 34 40 40 41 38 36 33 34 36 35 33 34 36 35 34 35 35 35 34 34 33 31 32 30 27 25 22 19
41 40 40 40 38 38 38 39 41 42 36 30 31 32 31 30 31 29 32 33 34 38 37 37 35 35 35 37 36 36 37 35 34 32 32 29 26 22
38 39 39 39 38 37 36 35 34 37 40 38 35 34 36 37 35 37 38 41 37 38 32 38 37 37 38 38 38 37 41 39 39 35 35 33 29 26
36 35 37 34 36 36 36 36 33 35 38 40 40 38 36 32 35 31 37 38 40 41 41 42 41 34 36 38 36 36 40 41 42 39 38 37 33 31
32 33 33 32 33 34 36 37 37 37 38 39 38 42 40 36 28 31 35 33 38 38 40 43 42 47 47 40 37 40 39 37 39 42 42 39 39 34
28 29 28 28 28 29 31 31 33 33 34 37 38 38 36 36 35 35 36 33 35 35 36 36 42 43 48 50 48 48 45 47 38 39 39 41 41 36
26 27 29 28 27 28 28 29 30 29 31 34 35 33 35 35 35 33 38 33 34 36 41 41 43 47 50 48 48 53 53 51 49 50 45 40 39 37
27 29 28 28 26 27 28 28 27 30 29 31 32 33 30 35 34 40 37 38 39 40 34 39 38 38 38 38 39 43 49 60 58 60 57 47 45 46
26 26 26 27 27 27 26 26 25 27 29 29 32 33 34 31 35 32 31 35 41 36 33 41 39 40 35 38 36 38 39 40 48 53 51 56 49 48
27 27 27 28 27 27 27 27 26 27 30 34 40 40 35 37 39 37 32 35 36 38 37 41 44 47 42 43 38 39 38 36 37 39 42 44 49 53
29 27 26 29 30 28 26 26 27 25 30 31 34 38 40 38 36 33 31 31 26 28 31 32 33 34 35 35 35 35 34 35 36 39 40 41 41 42
26 28 28 28 27 25 24 21 21 23 22 18 19 28 27 25 25 23 18 17 14 14 17 19 21 20 21 28 29 28 28 28 29 32 34 36 37 39
20 19 17 19 19 22 25 15 15 16 13 12 11 10 10 10 11 12 13 15 15 16 18 21 26 27 29 31 32 33 35 37 40 42 43 44 43 37
13 10 8 11 10 9 13 11 7 6 6 5 5 6 6 7 7 8 9 10 13 15 16 19 22 22 26 33 35 32 33 35 36 38 40 42 45 48
8 5 3 3 3 3 4 4 4 4 6 6 5 4 3 3 3 5 6 8 10 13 16 19 21 20 21 25 33 35 36 40 37 34 37 39 40 40
6 6 6 6 7 7 8 8 7 6 5 4 3 2 1 2 4 7 12 14 16 18 19 19 18 18 21 25 28 35 34 35 37 35 36 36 38 40
6 7 8 8 8 8 9 8 7 6 4 4 4 5 7 10 12 16 18 21 21 22 22 19 17 17 19 21 27 30 29 30 32 35 36 39 41 42
5 6 8 8 8 8 8 7 6 6 6 7 7 9 11 13 15 17 19 20 20 20 20 19 19 23 25 25 21 24 32 36 38 41 40 39 47 46
4 5 5 5 5 6 5 6 6 7 7 8 9 10 11 12 15 19 20 20 21 21 21 22 22 22 27 30 29 26 30 38 39 40 39 40 41 43
3 3 3 3 4 4 4 5 6 6 7 8 9 10 11 13 15 18 21 23 24 24 25 23 22 21 23 30 37 38 33 30 31 34 37 35 36 36
2 1 1 1 2 3 3 4 6 7 7 8 9 10 11 13 15 19 21 22 22 24 27 28 24 19 21 25 30 36 30 24 25 29 29 32 33 34
2 2 1 1 0 2 3 4 6 6 5 7 10 11 12 13 16 19 20 22 24 24 26 26 24 22 21 23 28 28 26 25 22 21 21 20 20 20
2 2 1 1 1 2 3 5 6 7 7 8 10 12 14 15 15 17 18 20 21 23 23 25 23 19 20 20 19 21 22 19 15 16 18 17 18 19
Wind_Direction
249 248 248 249 249 248 246 244 245 238 249 247 256 259 262 264 268 267 267 267 262 257 259 263 264 260 261 262 260 258 259 262 265 264 264 264 267 268
246 248 248 248 248 250 248 249 249 250 245 252 256 261 265 265 263 269 261 267 263 265 259 254 263 262 260 259 259 260 262 260 262 263 261 262 263 264
246 245 248 251 251 248 249 248 251 252 252 257 256 261 266 271 267 270 262 267 261 259 263 254 258 262 260 256 255 261 263 263 263 262 262 261 263 265
249 246 247 249 247 247 248 249 248 254 257 259 262 265 263 270 264 266 269 262 263 265 267 258 253 252 255 253 254 259 265 264 265 265 263 261 259 262
247 248 246 245 246 246 244 245 247 248 254 257 257 264 272 262 271 259 265 270 262 261 265 260 260 258 252 254 258 254 256 260 266 269 268 260 258 257
244 246 246 246 244 244 246 242 247 249 250 255 258 265 268 263 266 267 268 265 271 260 264 267 264 256 259 261 256 258 255 258 265 271 277 270 260 257
247 247 246 246 249 252 258 257 252 249 251 253 260 259 256 258 268 264 271 274 269 264 265 268 265 270 269 268 258 254 260 260 261 267 276 276 264 257
253 249 247 250 251 257 257 258 258 260 259 256 260 255 252 261 259 262 263 271 269 271 269 270 278 275 268 267 269 271 269 264 266 267 266 270 262 262
252 251 250 250 257 259 257 253 258 261 261 262 263 265 267 273 262 265 265 267 268 267 271 277 282 277 272 277 283 279 282 282 275 272 266 259 266 271
258 254 252 253 252 258 262 258 257 254 256 258 256 260 258 264 260 257 260 271 269 275 267 266 272 275 277 277 280 276 279 279 278 279 277 269 264 263
254 256 258 263 264 261 259 248 247 260 266 262 255 254 254 250 251 251 245 254 267 260 259 258 265 268 270 271 271 272 273 273 274 274 273 273 272 268
239 244 250 251 247 250 243 255 258 249 232 230 238 233 238 239 249 245 246 250 254 260 257 259 266 272 282 278 275 275 275 275 274 275 276 279 283 283
201 196 202 208 219 237 249 228 220 205 209 204 206 222 232 245 257 262 266 266 268 264 264 271 275 278 275 277 273 269 271 271 271 272 272 271 270 272
164 165 181 202 207 180 181 196 199 209 236 239 241 255 260 260 263 270 275 279 281 282 282 279 281 284 284 287 289 290 291 291 289 286 284 282 278 273
135 131 113 81 94 115 101 106 113 155 184 193 196 208 233 262 294 303 307 307 301 290 284 278 278 282 285 290 294 298 303 302 303 302 299 296 288 278
130 129 130 137 143 131 132 134 134 136 132 133 115 87 39 338 330 337 336 331 327 326 324 315 299 290 293 292 295 293 294 293 304 307 306 297 289 285
138 144 147 146 142 134 128 126 119 109 102 78 49 22 6 358 357 355 349 343 338 333 331 330 327 313 299 295 294 302 308 305 308 310 308 302 293 280
170 170 157 141 128 115 104 93 80 68 52 37 23 10 3 360 357 355 349 345 341 338 336 335 328 322 320 315 312 318 315 314 313 311 307 298 295 287
208 175 152 132 119 105 84 63 49 40 32 22 10 5 360 359 357 354 351 348 344 341 336 340 339 337 327 314 312 314 311 309 308 303 302 301 291 293
205 166 145 129 109 87 65 46 33 26 28 13 6 5 357 353 353 352 351 349 345 342 337 338 334 327 318 310 307 305 307 304 306 304 307 306 302 303
230 200 175 111 77 73 55 31 17 11 13 359 358 356 355 351 351 352 351 350 346 343 337 331 329 327 312 305 302 304 308 312 310 314 314 308 305 304
230 231 240 259 10 20 18 12 5 4 2 1 359 355 358 355 351 351 351 348 346 340 331 328 330 325 317 310 301 302 315 322 325 322 308 306 309 299
247 253 261 279 338 354 356 355 353 356 3 1 359 359 359 357 352 349 349 349 345 341 334 327 326 324 314 307 310 316 321 333 340 326 325 311 304 310
Height
1437 1442 1444 1447 1449 1452 1455 1458 1461 1463 1461 1462 1467 1471 1473 1474 1474 1476 1476 1477 1481 1483 1484 1484 1485 1487 1488 1489 1489 1490 1491 1490 1491 1492 1493 1493 1493 1493
1428 1433 1437 1439 1442 1444 1446 1450 1452 1454 1453 1457 1459 1461 1464 1465 1467 1467 1468 1470 1471 1473 1474 1474 1476 1478 1479 1481 1481 1481 1482 1483 1483 1485 1485 1486 1487 1486
1419 1423 1428 1431 1434 1436 1439 1441 1443 1446 1445 1449 1451 1455 1455 1456 1458 1458 1460 1461 1461 1463 1464 1466 1466 1468 1470 1471 1472 1472 1473 1474 1475 1477 1478 1479 1481 1480
1412 1416 1419 1423 1426 1428 1431 1433 1436 1439 1440 1440 1442 1444 1445 1448 1449 1448 1450 1450 1451 1452 1454 1455 1456 1458 1460 1461 1461 1463 1465 1465 1467 1468 1469 1471 1472 1473
1406 1409 1411 1416 1417 1421 1423 1425 1428 1432 1432 1433 1433 1437 1437 1440 1440 1439 1440 1440 1440 1442 1443 1445 1447 1450 1450 1451 1452 1453 1455 1456 1458 1458 1459 1460 1463 1464
1400 1403 1406 1408 1410 1414 1415 1418 1422 1422 1423 1424 1426 1427 1429 1429 1432 1431 1429 1431 1431 1432 1434 1436 1438 1440 1440 1441 1443 1444 1445 1446 1449 1451 1450 1450 1453 1454
1395 1397 1400 1402 1405 1407 1410 1413 1416 1416 1416 1416 1417 1420 1421 1421 1421 1422 1421 1421 1421 1424 1425 1424 1426 1429 1428 1430 1431 1432 1433 1435 1436 1440 1442 1442 1443 1444
1389 1392 1394 1397 1399 1401 1402 1405 1408 1408 1408 1409 1410 1410 1412 1413 1414 1415 1415 1414 1414 1412 1415 1413 1416 1416 1418 1418 1419 1421 1421 1423 1424 1426 1429 1432 1432 1433
1383 1386 1388 1391 1392 1394 1395 1397 1399 1400 1401 1403 1402 1402 1403 1404 1406 1406 1407 1406 1405 1407 1408 1403 1407 1405 1408 1409 1408 1410 1410 1409 1411 1412 1414 1418 1420 1422
1378 1380 1382 1383 1385 1387 1389 1390 1392 1393 1390 1394 1394 1394 1393 1395 1396 1396 1398 1398 1399 1399 1398 1394 1396 1394 1397 1397 1398 1399 1400 1399 1400 1400 1402 1404 1405 1408
1372 1374 1375 1376 1376 1379 1382 1383 1384 1383 1384 1385 1385 1385 1385 1385 1388 1388 1387 1389 1390 1389 1388 1386 1387 1387 1386 1386 1388 1389 1389 1389 1389 1390 1389 1389 1390 1390
1365 1367 1370 1370 1371 1373 1375 1373 1375 1376 1376 1376 1376 1375 1377 1379 1379 1380 1379 1380 1381 1382 1381 1381 1379 1380 1376 1374 1377 1378 1378 1379 1378 1378 1377 1378 1379 1378
1360 1362 1364 1366 1366 1367 1369 1368 1370 1370 1371 1372 1371 1372 1372 1373 1373 1374 1373 1374 1376 1377 1377 1377 1374 1373 1370 1366 1364 1368 1370 1368 1367 1366 1365 1364 1363 1364
1361 1361 1361 1362 1363 1363 1361 1363 1364 1364 1368 1369 1370 1370 1370 1371 1372 1372 1372 1372 1371 1371 1371 1369 1367 1367 1363 1358 1354 1356 1357 1357 1356 1354 1353 1352 1351 1350
1363 1364 1363 1364 1364 1364 1363 1364 1366 1368 1369 1370 1370 1370 1369 1369 1369 1369 1368 1368 1367 1365 1364 1362 1360 1358 1357 1353 1347 1346 1344 1341 1343 1341 1340 1338 1335 1335
1364 1363 1364 1365 1366 1366 1366 1366 1367 1367 1367 1367 1368 1368 1367 1367 1366 1365 1363 1361 1360 1358 1356 1354 1352 1350 1348 1346 1344 1339 1340 1336 1332 1331 1328 1325 1324 1321
1366 1365 1365 1366 1366 1366 1366 1366 1366 1366 1366 1365 1365 1364 1363 1362 1360 1359 1357 1354 1352 1350 1348 1346 1345 1343 1341 1339 1335 1332 1329 1327 1325 1321 1318 1314 1311 1308
1366 1366 1365 1365 1365 1365 1365 1365 1365 1364 1364 1363 1361 1360 1359 1357 1356 1355 1353 1351 1348 1345 1342 1341 1338 1335 1332 1330 1329 1325 1324 1320 1316 1313 1310 1305 1297 1292
1367 1365 1365 1364 1364 1364 1364 1364 1364 1363 1362 1361 1359 1358 1356 1355 1353 1350 1348 1346 1342 1339 1338 1336 1334 1332 1328 1323 1325 1326 1321 1318 1314 1307 1304 1297 1290 1281
1368 1366 1365 1364 1363 1363 1363 1363 1362 1362 1361 1360 1358 1355 1353 1351 1349 1347 1343 1339 1335 1334 1332 1332 1331 1330 1328 1324 1317 1316 1319 1313 1308 1300 1294 1287 1280 1272
1366 1366 1366 1366 1365 1364 1363 1362 1361 1359 1358 1357 1354 1352 1350 1348 1344 1340 1338 1334 1333 1331 1328 1327 1326 1325 1323 1321 1315 1310 1308 1307 1301 1293 1286 1280 1272 1264
1365 1365 1365 1365 1364 1363 1362 1361 1359 1358 1356 1355 1352 1349 1346 1343 1340 1337 1335 1331 1329 1328 1325 1323 1321 1320 1320 1317 1312 1306 1302 1298 1293 1287 1284 1279 1272 1265
1363 1363 1364 1363 1363 1362 1361 1360 1358 1356 1354 1351 1349 1345 1343 1340 1338 1335 1332 1329 1326 1323 1322 1320 1318 1317 1314 1311 1307 1304 1298 1292 1288 1285 1281 1276 1272 1268